Find OneWeb SL0691

NORAD ID: 61599 Int'l Des: 2024-188 Owner: ONEWEBE Country: UK Constellation: oneweb operational
LEOCIRCULARPOLARONEWEB_TYPE

リアルタイム位置

3D地球を読み込み中...

OneWeb SL0691について

説明を読み込み中...

次回通過

Passes for default location (London). Set your location on the main map for personalized predictions.

高度履歴

Loading altitude history...

軌道要素

1 61599U 24188F 26124.17264191 .00000317 00000-0 85993-3 0 9997
2 61599 87.8943 29.7164 0001914 91.7980 268.3367 13.11419174 78719
Epoch: May 4, 2026 • Age: 12 hours

現在のステータス

高度 1229.4 km
速度 7.25 km/s
衛星直下点 77.14°N, 103.08°E
打ち上げ日 Oct 20, 2024
運用期間 1.5 years
タイプ internet

技術仕様

分類 Payload
質量 148.00 kg
乾燥質量 140.00 kg
総質量 148.00 kg
長さ 1.30 m
直径 1.00 m
スパン 5.00 m
形状 Trapezoid+2 pan
製造者 ONEWUS
バスタイプ ARROW
フェーズステータス In Orbit
所有者/国 ONEWEBE/UK

Most Searched